Location: Augsburg
(48.3836°N, 10.8929°E)
Time: 13:29:52
(UTC+01:00)

ISS - Pass Details

Date: 14 November 2017
Orbit: 402 x 407 km, 51.6° (Epoch: 19 November)

Event Time Altitude Azimuth Distance (km) Brightness Sun altitude
Exits shadow 04:12:44 11° 86° (E) 1,405 -0.2 -31.4°
Drops below altitude 10° 04:12:58 - 87° (E) 1,498 -0.1 -31.3°
Sets 04:14:59 0° 92° (E) 2,314 1.1 -31.0°
